Regional Weather Roundup
Issued by NWS

Home | Current Version | Previous Version | Graphics & Text | Print | Product List | Glossary On
Versions: 1 2 3 4 5 6 7 8 9 10 11 12 13 14 15 16 17 18 19 20 21 22 23 24 25 26 27 28 29 30 31 32 33 34 35 36 37 38 39 40 41 42 43 44 45 46 47 48 49 50
000
ASUS43 KFSD 221402
RWRSD

WEATHER ROUNDUP FOR SOUTH DAKOTA
NATIONAL WEATHER SERVICE SIOUX FALLS SD
900 AM CDT FRI MAY 22 2015

NOTE: "FAIR" INDICATES FEW OR NO CLOUDS BELOW 12,000 FEET WITH NO
SIGNIFICANT WEATHER AND/OR OBSTRUCTIONS TO VISIBILITY.


SDZ001>005-009-010-012>017-221500-
NORTHWEST AND NORTH CENTRAL SOUTH DAKOTA

CITY           SKY/WX    TMP DP  RH WIND       PRES   REMARKS
BUFFALO          N/A     55  42  61 E9        30.03F
FAITH            N/A     56  39  53 SE12      30.12S
MOBRIDGE       MOSUNNY   58  44  60 E7        30.14S
$$

SDZ012>016-024>037-041>051-057-063-072>074-221500-
SOUTHWEST AND SOUTH CENTRAL SOUTH DAKOTA

CITY           SKY/WX    TMP DP  RH WIND       PRES   REMARKS
RAPID CTY ARPT CLOUDY    54  46  74 SE12      30.11R
PIERRE         SUNNY     55  42  61 E5        30.15S
CUSTER         CLOUDY    45  40  82 VRB5      30.11S
ELLSWORTH AFB  CLOUDY    54  47  79 SE9       30.10R
PHILIP         MOSUNNY   54  44  69 E7        30.13S
PINE RIDGE     CLOUDY    53  43  68 S10       30.12R
WINNER         FAIR      58  43  57 SE6       30.18R
$$

SDZ004>011-016>023-039-040-221500-
NORTHEAST SOUTH DAKOTA

CITY           SKY/WX    TMP DP  RH WIND       PRES   REMARKS
ABERDEEN       SUNNY     59  41  51 SE5       30.18S
WATERTOWN      SUNNY     60  39  45 SE6       30.20R
BROOKINGS      SUNNY     61  34  36 SE6       30.21S
$$

SDZ017-020-022-023-036>040-048>070-221500-
SOUTHEAST SOUTH DAKOTA

CITY           SKY/WX    TMP DP  RH WIND       PRES   REMARKS
SIOUX FALLS    MOSUNNY   61  46  57 E3        30.20S
HURON          SUNNY     59  42  53 S3        30.18F
CHAMBERLAIN    SUNNY     56  45  65 CALM      30.18R
MITCHELL       SUNNY     59  42  53 SE6       30.20S
YANKTON        SUNNY     55  43  62 CALM      30.21R
$$

ABBREVIATIONS USED IN REMARKS
   TC - TEMPERATURE IN CELSIUS
  WCI - WIND CHILL INDEX
   HX - HEAT INDEX
  VSB - VISIBILITY




USA.gov is the U.S. government's official web portal to all federal, state and local government web resources and services.